Date,TemperatureHighF,TemperatureAvgF,TemperatureLowF,DewpointHighF,DewpointAvgF,DewpointLowF,HumidityHigh,HumidityAvg,HumidityLow,PressureMaxIn,PressureMinIn,WindSpeedMaxMPH,WindSpeedAvgMPH,GustSpeedMaxMPH,PrecipitationSumIn
2013-6-6,76.9,70.2,60.5,69.9,66.5,59.8,98,88,70,29.97,29.84,2,0,0,0.07
2013-6-7,79.3,68.6,62.2,70.2,64.5,61.1,98,88,59,29.93,29.76,6,0,0,0.09
2013-6-8,78.1,68.5,60.6,67.2,62.4,59.4,98,83,54,30.18,29.92,2,0,0,0.02
2013-6-9,80.4,67.5,59.6,70.1,63.8,58.7,98,89,62,30.23,30.09,3,0,0,0.81
2013-6-10,73.6,67.3,63.3,70.0,63.8,60.1,98,89,65,30.11,30.00,3,0,0,1.01
2013-6-11,80.2,70.5,60.8,70.9,63.0,58.9,99,80,50,30.12,30.04,6,0,0,0.15
2013-6-12,86.4,71.7,58.9,74.5,65.6,58.0,98,83,55,30.16,30.04,3,0,0,0.00
2013-6-13,85.7,69.9,61.6,72.6,65.5,60.7,98,88,54,30.06,29.82,4,0,0,1.17
2013-6-14,77.5,66.8,55.4,64.4,57.2,51.0,99,75,43,30.16,29.91,4,0,0,0.00
2013-6-15,80.1,66.5,50.5,63.3,57.1,49.4,97,75,49,30.27,30.14,3,0,0,0.00
2013-6-16,82.6,69.9,56.7,67.5,61.6,55.6,97,77,48,30.25,30.09,3,0,0,0.00
2013-6-17,80.3,69.2,65.8,69.9,65.5,64.1,95,88,68,30.13,30.08,2,0,0,0.00
2013-6-18,68.4,65.8,63.7,66.9,64.9,63.1,98,97,94,30.02,29.93,0,0,0,0.44
2013-6-19,78.1,68.1,58.4,69.1,62.6,57.8,99,84,55,30.20,30.02,2,0,0,0.00
2013-6-20,81.8,67.6,56.0,68.8,62.0,54.9,98,84,57,30.32,30.19,8,0,0,0.00
2013-6-21,78.8,68.7,61.1,68.3,63.0,59.6,98,84,57,30.35,30.25,3,0,0,0.00
2013-6-22,81.4,68.3,56.5,66.2,60.5,55.7,98,79,47,30.35,30.19,3,0,0,0.00
2013-6-23,82.7,68.4,56.3,69.5,63.1,55.5,97,85,53,30.32,30.19,3,0,0,0.00
2013-6-24,82.2,72.4,63.1,70.9,66.1,62.2,98,82,59,30.31,30.16,4,0,0,0.00
2013-6-25,83.2,71.3,62.9,71.0,66.1,61.9,98,85,58,30.25,30.10,4,0,0,0.00
2013-6-26,82.7,71.0,63.4,72.6,67.4,62.5,98,89,65,30.15,30.00,3,0,0,0.40
2013-6-27,75.6,68.2,64.1,69.6,66.6,63.5,98,95,80,30.06,29.86,5,0,0,0.68
2013-6-28,83.9,72.4,65.8,74.5,68.1,65.2,98,88,58,29.92,29.72,5,0,0,0.08
2013-6-29,81.5,70.3,61.3,69.9,62.4,54.9,98,79,48,29.81,29.73,3,0,0,0.00
2013-6-30,83.6,67.9,55.0,69.0,61.8,54.2,98,83,48,29.90,29.80,2,0,0,0.00